Home   Weather   Choloma   Past weeks

Flag for Honduras Past Weather in Choloma, Honduras — Yesterday and Last 2 Weeks

73 °F

Passing clouds.

Feels Like: 68 °F
Forecast: 72 / 80 °F
Wind: 5 mph from Southwest

Location: La Mesa San Pedro Sula

Current Time: Oct 21, 2016 at 7:06:29 AM

Latest Report: Oct 21, 2016 at 6:00 AM

Visibility: N/A

Pressure: 29.86 "Hg

Humidity: 100%

Dew Point: 73 °F

Location of CholomaLocation

Past Weather in Choloma — Graph


Choloma Temperature Yesterday

Maximum temperature yesterday: 88 °F (at 12:00 PM)
Minimum temperature yesterday: 75 °F (at 12:00 AM)
Average temperature yesterday: 80 °F

High & Low Weather Summary for the Past Weeks

High95 °F (Oct 6, 1:00 PM)100% (Oct 6, 7:00 AM)30.01 "Hg (Oct 6, 7:00 AM)
Low72 °F (Oct 13, 5:00 AM)53% (Oct 6, 1:00 PM)29.71 "Hg (Oct 6, 3:00 PM)
Average80 °F90%29.88 "Hg
* Reported Oct 6 7:00 AM — Oct 21 6:00 AM, Choloma, Weather by CustomWeather, © 2016

Note: Actual official high and low records may vary slightly from our data, if they occured in-between our weather recording intervals... More about our weather records


Choloma Weather History for the Previous 24 Hours

Scroll right to see more
Time TempWeatherWind HumidityBarometerVisibility
6:00 AM
Fri, Oct 21
73 °FPassing clouds.5 mph100%29.86 "HgN/A
5:00 AM73 °FPassing clouds.5 mph100%29.86 "HgN/A
4:00 AM73 °FPassing clouds.No wind100%29.86 "HgN/A
3:00 AM73 °FPartly cloudy.6 mph100%29.86 "HgN/A
2:00 AM75 °FLight rain. Partly cloudy.5 mph100%29.86 "Hg1 mi
1:00 AM75 °FPassing clouds.7 mph100%29.86 "HgN/A
12:00 AM75 °FPassing clouds.No wind100%29.89 "HgN/A
11:00 PM
Thu, Oct 20
75 °FPassing clouds.5 mph100%29.89 "HgN/A
10:00 PM77 °FPassing clouds.No wind100%29.89 "HgN/A
9:00 PM77 °FPassing clouds.No wind100%29.89 "HgN/A
8:00 PM77 °FPassing clouds.5 mph100%29.86 "HgN/A
7:00 PM79 °FPassing clouds.6 mph94%29.83 "HgN/A
6:00 PM81 °FPartly cloudy.7 mph89%29.80 "HgN/A
5:00 PM82 °FBroken clouds.7 mph84%29.80 "HgN/A
4:00 PM86 °FBroken clouds.14 mph75%29.77 "HgN/A
3:00 PM86 °FThunderstorms. Broken clouds.12 mph79%29.77 "HgN/A
2:00 PM88 °FBroken clouds.12 mph75%29.77 "HgN/A
1:00 PM88 °FScattered clouds.12 mph75%29.80 "HgN/A
12:00 PM88 °FBroken clouds.12 mph75%29.83 "HgN/A
11:00 AM86 °FBroken clouds.7 mph84%29.86 "HgN/A
10:00 AM84 °FBroken clouds.5 mph89%29.89 "HgN/A
9:00 AM81 °FScattered clouds.5 mph94%29.89 "HgN/A
8:00 AM77 °FBroken clouds.5 mph100%29.86 "HgN/A
7:00 AM75 °FLight rain. Cloudy.2 mph100%29.86 "Hg4 mi
Weather by CustomWeather, © 2016

See weather overviewHow to use our weather pages